Location: Andiroba
(19.8650°S, 43.9258°W)
Time: 23:02:59
(UTC+00:00)

Cosmos 1447 Rocket - Pass Details

Date: 21 September 2024
Orbit: 954 x 995 km, 82.9° (Epoch: 14 October)

Event Time Altitude Azimuth Distance (km) Brightness Sun altitude
Rises 06:41:33 0° 166° (SSE) 3,680 7.8 -29.9°
Reaches altitude 10° 06:44:32 10° 154° (SSE) 2,720 7.2 -29.2°
Maximum altitude 06:49:37 26° 99° (E) 1,799 6.5 -28.0°
Drops below altitude 10° 06:54:36 10° 44° (NE) 2,681 7.2 -26.9°
Sets 06:57:30 0° 31° (NNE) 3,617 7.8 -26.2°
